Ulm, AR

4:09 AM CDT on September 26, 2016 (GMT -0500)
Stuttgart Municipal

Weather History for KSGT - April, 2014

Change the Weather History Date:

Tuesday, April 15, 2014

  Actual Average Record
Temperature  
Mean Temperature 45 °F -  
Max Temperature 53 °F 71 °F 86 °F (2003)
Min Temperature 37 °F 51 °F 37 °F (2014)
Degree Days  
Heating Degree Days 20    
Moisture  
Dew Point 30 °F    
Average Humidity 54    
Maximum Humidity 71    
Minimum Humidity 38    
Precipitation  
Precipitation 0.00 in - - ()
Sea Level Pressure  
Sea Level Pressure 30.22 in    
Wind  
Wind Speed 14 mph (NNE)    
Max Wind Speed 23 mph    
Max Gust Speed 32 mph    
Visibility 10 miles    
Events      
Averages and records for this station are not official NWS values.
T = Trace of Precipitation, MM = Missing Value Source: NWS Daily Summary

Daily Weather History Graph

Daily Weather History Graph

Search for Another Location

Airport or City:

Trip Planner

Search our weather history database for the weather conditions in past years. The results will help you decide how hot, cold, wet, or windy it might be!

Date:

Astronomy

Apr. 15, 2014 Rise Set
Actual Time 6:34 AM CDT 7:38 PM CDT
Civil Twilight 6:08 AM CDT 8:04 PM CDT
Nautical Twilight 5:38 AM CDT 8:35 PM CDT
Astronomical Twilight 5:06 AM CDT 9:07 PM CDT
Moon 8:17 PM CDT (4/15) 6:43 AM CDT (4/15)
Length of Visible Light 13h 55m
Length of Day
13h 03m
Full, 100% of the Moon is Illuminated
Apr 15
Full
Apr 22
Last Quarter
Apr 29
New
May 6
First Quarter
May 14
Full

Hourly Weather History & Observations

Time (CDT) Temp. Windchill Dew Point Humidity Pressure Visibility Wind Dir Wind Speed Gust Speed Precip Events Conditions
12:15 AM 42.8 °F 34.0 °F 30.2 °F 61% 30.10 in 10.0 mi North 20.7 mph 28.8 mph N/A   Overcast
12:35 AM 41.0 °F 31.4 °F 30.2 °F 65% 30.11 in 10.0 mi North 21.9 mph 27.6 mph N/A   Overcast
12:55 AM 41.0 °F 32.2 °F 30.2 °F 65% 30.11 in 10.0 mi NNW 18.4 mph 27.6 mph N/A   Overcast
1:15 AM 41.0 °F 31.4 °F 30.2 °F 65% 30.12 in 10.0 mi North 21.9 mph 27.6 mph N/A   Overcast
1:35 AM 41.0 °F 31.9 °F 30.2 °F 65% 30.12 in 10.0 mi North 19.6 mph - N/A   Overcast
1:55 AM 41.0 °F 31.9 °F 30.2 °F 65% 30.12 in 10.0 mi North 19.6 mph - N/A   Overcast
2:15 AM 41.0 °F 31.1 °F 28.4 °F 61% 30.12 in 10.0 mi NNW 23.0 mph 32.2 mph N/A   Overcast
2:35 AM 39.2 °F 29.6 °F 28.4 °F 65% 30.13 in 10.0 mi North 19.6 mph 25.3 mph N/A   Partly Cloudy
7:55 AM 37.4 °F 28.5 °F 26.6 °F 65% 30.26 in 10.0 mi North 15.0 mph - N/A   Clear
8:15 AM 39.2 °F 31.2 °F 26.6 °F 61% 30.26 in 10.0 mi North 13.8 mph - N/A   Clear
8:35 AM 39.2 °F 31.6 °F 28.4 °F 65% 30.27 in 10.0 mi North 12.7 mph - N/A   Clear
8:55 AM 39.2 °F 32.0 °F 28.4 °F 65% 30.27 in 10.0 mi North 11.5 mph - N/A   Clear
9:15 AM 41.0 °F 34.3 °F 28.4 °F 61% 30.27 in 10.0 mi North 11.5 mph - N/A   Clear
9:35 AM 42.8 °F 37.0 °F 26.6 °F 53% 30.28 in 10.0 mi North 10.4 mph - N/A   Clear
9:55 AM 42.8 °F 35.4 °F 26.6 °F 53% 30.28 in 10.0 mi North 15.0 mph 19.6 mph N/A   Clear
10:15 AM 44.6 °F 39.7 °F 28.4 °F 53% 30.29 in 10.0 mi North 9.2 mph - N/A   Clear
10:35 AM 44.6 °F 39.7 °F 26.6 °F 49% 30.30 in 10.0 mi North 9.2 mph - N/A   Clear
10:55 AM 44.6 °F 38.8 °F 28.4 °F 53% 30.30 in 10.0 mi NNW 11.5 mph - N/A   Clear
11:15 AM 44.6 °F 40.7 °F 28.4 °F 53% 30.30 in 10.0 mi NW 6.9 mph - N/A   Clear
11:55 AM 46.4 °F 40.7 °F 26.6 °F 46% 30.28 in 10.0 mi North 12.7 mph 20.7 mph N/A   Clear
12:15 PM 46.4 °F 41.5 °F 28.4 °F 50% 30.29 in 10.0 mi North 10.4 mph 18.4 mph N/A   Clear
12:55 PM 48.2 °F - 28.4 °F 46% 30.27 in 10.0 mi North 11.5 mph 18.4 mph N/A   Clear
1:15 PM 48.2 °F - 28.4 °F 46% 30.27 in 10.0 mi North 6.9 mph 18.4 mph N/A   Partly Cloudy
1:35 PM 48.2 °F - 28.4 °F 46% 30.26 in 10.0 mi NNW 11.5 mph - N/A   Partly Cloudy
1:55 PM 50.0 °F - 30.2 °F 47% 30.26 in 10.0 mi North 11.5 mph 18.4 mph N/A   Partly Cloudy
2:15 PM 50.0 °F - 30.2 °F 47% 30.25 in 10.0 mi North 9.2 mph - N/A   Partly Cloudy
2:35 PM 51.8 °F - 28.4 °F 41% 30.24 in 10.0 mi NNW 9.2 mph 18.4 mph N/A   Clear
2:55 PM 51.8 °F - 30.2 °F 44% 30.23 in 10.0 mi North 10.4 mph - N/A   Clear
3:15 PM 51.8 °F - 28.4 °F 41% 30.23 in 10.0 mi North 10.4 mph 23.0 mph N/A   Clear
3:35 PM 51.8 °F - 28.4 °F 41% 30.22 in 10.0 mi North 10.4 mph - N/A   Clear
3:55 PM 51.8 °F - 28.4 °F 41% 30.22 in 10.0 mi North 4.6 mph - N/A   Clear
4:15 PM 51.8 °F - 28.4 °F 41% 30.21 in 10.0 mi North 9.2 mph - N/A   Clear
4:35 PM 53.6 °F - 30.2 °F 41% 30.20 in 10.0 mi North 8.1 mph - N/A   Clear
4:55 PM 53.6 °F - 30.2 °F 41% 30.20 in 10.0 mi NNE 5.8 mph - N/A   Partly Cloudy
5:15 PM 53.6 °F - 30.2 °F 41% 30.19 in 10.0 mi North 3.5 mph - N/A   Partly Cloudy
5:35 PM 53.6 °F - 28.4 °F 38% 30.18 in 10.0 mi NNE 6.9 mph - N/A   Clear
5:55 PM 51.8 °F - 28.4 °F 41% 30.18 in 10.0 mi East 6.9 mph - N/A   Clear
6:15 PM 51.8 °F - 28.4 °F 41% 30.18 in 10.0 mi East 6.9 mph - N/A   Clear
6:35 PM 51.8 °F - 28.4 °F 41% 30.18 in 10.0 mi ENE 5.8 mph - N/A   Clear
6:55 PM 51.8 °F - 28.4 °F 41% 30.18 in 8.0 mi ENE 6.9 mph - N/A   Clear
7:15 PM 51.8 °F - 28.4 °F 41% 30.18 in 10.0 mi ENE 10.4 mph - N/A   Clear
7:35 PM 50.0 °F - 32.0 °F 50% 30.18 in 10.0 mi East 11.5 mph - N/A   Clear
7:55 PM 48.2 °F - 32.0 °F 54% 30.20 in 10.0 mi East 8.1 mph - N/A   Clear
8:15 PM 48.2 °F - 32.0 °F 54% 30.20 in 10.0 mi East 8.1 mph - N/A   Clear
8:35 PM 48.2 °F - 33.8 °F 58% 30.21 in 10.0 mi East 8.1 mph - N/A   Clear
8:55 PM 46.4 °F 42.9 °F 33.8 °F 62% 30.22 in 10.0 mi ESE 6.9 mph - N/A   Clear
9:15 PM 46.4 °F 42.4 °F 33.8 °F 62% 30.23 in 10.0 mi ESE 8.1 mph - N/A   Clear
9:35 PM 46.4 °F 42.9 °F 33.8 °F 62% 30.24 in 10.0 mi SE 6.9 mph - N/A   Clear
9:55 PM 46.4 °F 42.9 °F 35.6 °F 66% 30.24 in 10.0 mi ESE 6.9 mph - N/A   Clear
10:15 PM 44.6 °F - 35.6 °F 71% 30.25 in 10.0 mi North - - N/A   Clear
10:35 PM 44.6 °F 40.7 °F 35.6 °F 71% 30.25 in 10.0 mi SE 6.9 mph - N/A   Clear
10:55 PM 44.6 °F 40.7 °F 35.6 °F 71% 30.24 in 10.0 mi ESE 6.9 mph - N/A   Clear
11:15 PM 44.6 °F 39.7 °F 35.6 °F 71% 30.24 in 10.0 mi ESE 9.2 mph - N/A   Clear
11:35 PM 44.6 °F 39.7 °F 33.8 °F 66% 30.24 in 10.0 mi ESE 9.2 mph - N/A   Clear
11:55 PM 44.6 °F 38.8 °F 33.8 °F 66% 30.24 in 10.0 mi ESE 11.5 mph - N/A   Clear